Weather in Djibouti

Djibouti     11°34′27″N   43°08′42″E
temp.,
°C
wind,
m/s
gust,
m/s
humid.,
%
clouds,
%
prec.,
mm/h
press.,
hPa
HPBL,
m
5 august, thu
thu500:00+31ssw56595 0.8 1009139
03:00+32ssw33615 0.8 100752
06:00+31w45656 0.2 1009116
09:00+33wsw9124865 0.4 1010402
12:00+34w784937 2.5 1008673
15:00+36w7743100 2.5 1006845
18:00+36wsw674390 0.0 1005504
21:00+34wsw34505 0.2 100763
6 august, fri
fri600:00+32n116579 0.0 100728
03:00+32sse226062 0.0 100536
06:00+32wsw3453100 0.0 100758
09:00+33w5751100 0.1 1008323
12:00+35w4547100 0.1 1006739
15:00+36wnw35465 0.1 10031005
18:00+35wsw244826 0.6 1003320
21:00+32ne34615 0.8 100591
7 august, sat
sat700:00+32w23580 0.2 100557
03:00+30s710625 0.2 1005220
06:00+30w696037 0.8 1007178
09:00+31wnw99573 1.6 1008383
12:00+34w810485 0.0 1007396
15:00+35wsw79413 0.1 1004571
18:00+34wsw56445 0.6 1004213
21:00+32nnw45605 1.6 100782
8 august, sun
sun800:00+32w225611 0.0 100617
03:00+32sse33585 0.0 100530
06:00+32wsw46541 0.0 100771
09:00+33wnw45520 0.0 1008414
12:00+35nw45470 0.0 10071006
15:00+37wnw56436 0.0 10031137
18:00+33ene45607 0.0 1004130
21:00+33nw49565 0.0 1006331
9 august, mon
mon900:00+34w58486 0.0 1004102
03:00+31nnw446451 0.0 100459
06:00+32wsw235348 0.0 100517
09:00+34nnw345231 0.0 1007611
12:00+36nw45455 0.0 1005983
15:00+38wnw57395 0.0 10021102
18:00+34nne7135765 0.0 1002269
21:00+33n710615 0.0 1004190